Lid_Strength_Index
3 3 3 3 3 3 3 3 3 4 4 4 4 4 4 4 4 6 9 5 4 3 2 5 6 6 5 6 5 5 11 14 13 12 11 7 8 8 7 9 9 7 7 4 2
3 3 3 3 4 3 3 3 3 3 4 4 4 4 4 4 7 10 5 3 2 2 4 7 8 7 9 9 8 8 12 12 9 9 10 8 7 8 10 10 11 9 6 7 7
3 3 3 4 3 3 3 3 3 4 4 4 4 4 5 5 10 10 4 2 2 2 4 5 6 7 10 8 9 10 13 9 9 8 8 9 9 7 10 12 11 11 10 8 8
3 3 3 4 3 3 3 4 4 4 4 4 5 5 5 7 16 8 4 5 4 4 6 7 8 10 11 11 9 12 9 9 9 8 9 10 9 10 10 10 9 9 10 8 9
3 3 4 4 4 4 4 4 4 4 5 5 5 5 6 11 12 7 6 6 6 6 7 8 10 10 12 11 10 11 10 8 8 8 9 8 10 10 11 10 9 9 10 9 9
3 4 4 4 4 4 4 4 5 5 5 6 6 5 9 14 8 7 6 6 7 7 8 8 9 8 10 11 11 9 9 9 8 8 8 9 10 9 10 9 9 9 9 10 9
3 4 4 4 4 4 4 5 5 6 6 6 5 6 10 11 8 7 7 8 7 7 8 6 6 9 9 11 8 9 11 9 9 8 9 7 11 11 8 8 10 10 10 10 10
4 4 4 4 4 5 5 6 6 6 6 6 5 7 12 7 9 9 8 9 7 6 7 6 6 7 9 8 9 11 11 14 10 8 7 8 14 9 7 8 10 10 10 9 9
3 4 4 5 5 6 6 7 6 7 6 5 7 9 13 8 11 9 9 10 8 7 6 5 6 9 8 12 14 12 16 14 12 7 8 9 12 9 7 7 9 10 10 10 9
3 4 5 5 5 7 6 7 6 5 6 8 10 12 11 13 11 10 8 9 10 9 9 8 9 11 11 12 18 15 15 14 14 10 9 10 10 9 8 8 9 9 9 9 7
3 4 5 6 7 6 7 9 11 12 11 14 14 14 13 11 10 10 9 10 9 10 13 10 15 16 13 11 11 12 14 14 13 10 10 11 11 10 8 9 9 10 9 8 7
4 4 5 6 8 6 8 12 13 11 15 12 13 13 11 11 14 12 9 13 13 15 12 13 16 10 9 10 12 13 14 15 12 10 10 11 11 9 8 9 9 9 9 9 8
4 4 5 7 7 8 11 12 9 10 14 14 13 14 13 12 14 14 11 12 14 15 14 16 13 10 11 12 13 13 14 14 14 11 10 11 13 11 9 8 8 8 8 10 11
4 5 6 7 9 10 12 9 8 9 17 17 15 14 12 12 15 11 10 12 13 15 14 14 10 11 12 13 12 16 12 12 13 14 18 11 19 12 10 10 9 10 12 13 14
4 5 7 8 10 12 12 9 9 11 21 16 15 11 12 14 15 14 10 12 16 15 15 16 14 14 14 12 11 15 12 12 13 14 15 15 17 15 12 15 13 14 15 14 14
4 6 7 9 9 11 9 9 11 18 22 18 15 16 16 15 15 14 13 11 12 15 13 14 11 11 11 10 11 12 16 16 15 16 20 16 16 19 17 17 16 15 16 16 16
4 7 8 9 12 10 9 12 18 20 17 19 19 17 17 18 17 16 17 18 21 24 21 16 14 11 10 13 12 15 17 23 21 20 21 13 16 20 17 15 16 16 17 17 17
5 8 8 9 10 10 11 16 21 20 20 17 17 18 19 18 18 18 18 20 17 19 22 22 21 15 12 16 19 19 17 20 28 26 21 14 20 21 16 15 15 15 16 17 17
5 8 8 9 10 11 15 18 21 20 19 20 19 21 20 18 19 19 19 21 19 18 25 24 20 13 12 13 14 20 21 16 21 21 22 20 20 18 17 17 17 17 17 18 18
9 11 10 8 9 12 15 19 20 17 17 18 22 20 23 20 21 21 21 19 18 16 18 19 22 14 13 12 12 17 16 24 20 25 25 19 23 25 23 20 19 19 19 19 18
9 13 10 8 9 13 18 19 18 16 17 19 20 21 21 21 21 21 21 18 16 17 16 18 20 19 15 19 23 19 21 22 22 21 23 25 26 20 21 20 20 19 19 19 19
10 13 10 9 14 15 18 17 16 17 16 18 18 19 20 20 21 21 21 19 15 17 21 16 21 24 21 18 16 19 22 23 25 27 22 22 26 19 20 19 18 19 19 19 19
12 12 9 10 16 17 16 16 17 18 18 19 19 18 18 21 25 20 20 16 15 17 21 16 22 27 24 21 17 20 21 21 22 21 25 25 25 20 20 20 19 20 20 19 19
11 14 13 13 14 17 18 18 18 16 17 17 18 18 19 21 19 22 21 17 16 16 13 16 21 24 26 23 23 23 22 20 23 22 26 24 25 23 23 21 20 20 20 20 21
11 14 15 16 16 16 17 17 19 19 17 17 19 19 21 25 21 21 19 19 16 14 17 19 23 21 20 19 18 20 21 24 24 26 26 27 25 24 23 22 20 20 20 20 21
12 14 16 15 16 16 16 18 19 18 18 19 20 19 19 21 20 21 19 19 19 18 20 19 23 24 26 19 18 20 21 24 24 24 24 25 26 22 21 21 20 21 21 22 21
11 12 14 15 16 17 17 17 17 17 16 16 17 18 19 18 16 16 16 17 18 18 18 18 22 27 29 23 24 24 25 26 29 29 28 30 28 22 23 22 21 22 22 21 21